K4AXV-13 Weather Reports


Display with metric or nautical units.
time (UTC)temp
F
wind
direction
speed
MPH
gust
MPH
rain 1hr
in
rain 24hr
in
rain mn
in
humidity
%
barometer
mb
20260903234006 83 146 2.0 2.0 0.00 0.00 0.00
20260903233507 84 129 2.0 2.0 0.00 0.00 0.00
20260903233006 83 124 3.0 2.0 0.00 0.00 0.00
20260903232506 84 159 2.0 2.0 0.00 0.00 0.00
20260903232004 84 111 2.0 1.0 0.00 0.00 0.00
20260903231504 85 132 3.0 4.0 0.00 0.00 0.00
20260903230503 85 138 3.0 3.0 0.00 0.00 0.00
20260903225502 85 132 6.0 7.0 0.00 0.00 0.00
20260903225001 85 150 4.0 5.0 0.00 0.00 0.00
20260903224000 85 38 3.0 3.0 0.00 0.00 0.00
20260903223501 85 139 1.0 4.0 0.00 0.00 0.00
20260903222959 85 131 4.0 3.0 0.00 0.00 0.00
20260903222500 86 122 5.0 5.0 0.00 0.00 0.00
20260903221958 85 127 6.0 5.0 0.00 0.00 0.00
20260903221459 85 149 5.0 5.0 0.00 0.00 0.00
20260903220957 85 150 5.0 6.0 0.00 0.00 0.00
20260903220458 85 158 5.0 8.0 0.00 0.00 0.00
20260903215956 85 118 5.0 5.0 0.00 0.00 0.00
20260903215457 85 98 7.0 7.0 0.00 0.00 0.00
20260903214456 86 131 6.0 5.0 0.00 0.00 0.00
20260903213455 86 141 7.0 5.0 0.00 0.00 0.00
20260903212953 86 146 1.0 5.0 0.00 0.00 0.00
20260903212454 86 120 7.0 7.0 0.00 0.00 0.00
20260903211952 87 79 3.0 2.0 0.00 0.00 0.00
20260903211453 87 158 4.0 4.0 0.00 0.00 0.00
20260903210949 88 124 5.0 7.0 0.00 0.00 0.00
20260903205946 87 104 2.0 4.0 0.00 0.00 0.00
20260903204943 87 125 9.0 9.0 0.00 0.00 0.00
20260903204444 88 132 4.0 7.0 0.00 0.00 0.00
20260903203942 87 83 6.0 2.0 0.00 0.00 0.00
20260903203443 87 118 5.0 3.0 0.00 0.00 0.00
20260903202941 87 120 6.0 7.0 0.00 0.00 0.00
20260903202442 87 134 6.0 8.0 0.00 0.00 0.00
20260903201940 87 114 5.0 5.0 0.00 0.00 0.00
20260903200937 88 124 6.0 9.0 0.00 0.00 0.00
20260903200438 88 104 4.0 2.0 0.00 0.00 0.00
20260903195437 88 121 8.0 9.0 0.00 0.00 0.00
20260903194935 88 122 9.0 6.0 0.00 0.00 0.00
20260903194436 89 159 7.0 4.0 0.00 0.00 0.00
20260903193434 88 39 1.0 0.0 0.00 0.00 0.00
20260903192932 89 111 6.0 4.0 0.00 0.00 0.00
20260903191931 89 94 9.0 6.0 0.00 0.00 0.00
20260903191432 89 128 4.0 4.0 0.00 0.00 0.00
20260903190930 88 104 7.0 2.0 0.00 0.00 0.00
20260903190431 89 143 7.0 5.0 0.00 0.00 0.00
20260903185929 89 93 4.0 10.0 0.00 0.00 0.00
20260903185430 89 115 4.0 5.0 0.00 0.00 0.00
20260903184927 89 100 8.0 5.0 0.00 0.00 0.00
20260903183927 89 143 4.0 4.0 0.00 0.00 0.00
20260903182926 88 129 7.0 8.0 0.00 0.00 0.00
20260903182426 89 141 6.0 5.0 0.00 0.00 0.00
20260903181924 89 138 6.0 4.0 0.00 0.00 0.00
20260903181424 88 121 7.0 8.0 0.00 0.00 0.00
20260903180920 88 115 7.0 9.0 0.00 0.00 0.00
20260903180420 89 143 7.0 9.0 0.00 0.00 0.00
20260903175920 88 46 1.0 0.0 0.00 0.00 0.00
20260903175420 88 128 7.0 6.0 0.00 0.00 0.00
20260903174916 88 139 7.0 6.0 0.00 0.00 0.00
20260903174417 87 142 5.0 5.0 0.00 0.00 0.00
20260903173915 88 148 7.0 8.0 0.00 0.00 0.00
20260903173417 88 146 7.0 7.0 0.00 0.00 0.00
20260903172914 88 135 7.0 7.0 0.00 0.00 0.00
20260903172415 88 165 5.0 7.0 0.00 0.00 0.00
20260903171911 89 148 7.0 7.0 0.00 0.00 0.00
20260903171410 89 148 10.0 7.0 0.00 0.00 0.00
20260903170906 88 141 8.0 7.0 0.00 0.00 0.00
20260903170407 89 149 7.0 9.0 0.00 0.00 0.00
20260903165904 89 82 5.0 6.0 0.00 0.00 0.00
20260903165405 87 107 8.0 8.0 0.00 0.00 0.00
20260903164405 88 96 4.0 3.0 0.00 0.00 0.00
20260903163902 88 131 4.0 7.0 0.00 0.00 0.00
20260903162357 89 110 5.0 4.0 0.00 0.00 0.00
20260903161855 89 136 4.0 7.0 0.00 0.00 0.00
20260903161357 89 121 4.0 6.0 0.00 0.00 0.00
20260903160852 89 160 1.0 3.0 0.00 0.00 0.00
20260903155850 89 134 4.0 5.0 0.00 0.00 0.00
20260903155351 88 152 4.0 4.0 0.00 0.00 0.00
20260903154848 88 152 1.0 2.0 0.00 0.00 0.00
20260903154349 88 153 6.0 3.0 0.00 0.00 0.00
20260903153845 89 139 4.0 6.0 0.00 0.00 0.00
20260903153346 88 100 2.0 3.0 0.00 0.00 0.00
20260903152844 87 131 2.0 0.0 0.00 0.00 0.00
20260903152345 87 104 3.0 3.0 0.00 0.00 0.00
20260903151843 88 129 3.0 5.0 0.00 0.00 0.00
20260903151344 88 138 4.0 5.0 0.00 0.00 0.00
20260903150842 87 134 8.0 6.0 0.00 0.00 0.00
20260903150346 87 143 3.0 3.0 0.00 0.00 0.00
20260903145841 87 73 1.0 1.0 0.00 0.00 0.00
20260903145557 83 52 0.0 0.0 0.00 0.00 0.00
20260903145555 83 52 0.0 0.0 0.00 0.00 0.00
20260903145441 83 52 0.0 0.0 0.00 0.00 0.00
20260903145439 83 52 0.0 0.0 0.00 0.00 0.00
20260903144837 86 89 4.0 2.0 0.00 0.00 0.00
20260903144337 87 82 0.0 1.0 0.00 0.00 0.00
20260903143832 86 156 2.0 3.0 0.00 0.00 0.00
20260903143333 86 63 2.0 3.0 0.00 0.00 0.00
20260903142831 85 115 2.0 1.0 0.00 0.00 0.00
20260903141829 85 89 1.0 2.0 0.00 0.00 0.00
20260903140826 83 105 1.0 1.0 0.00 0.00 0.00
20260903140326 84 56 0.0 0.0 0.00 0.00 0.00
20260903135821 84 60 1.0 1.0 0.00 0.00 0.00
20260903134820 83 52 0.0 0.0 0.00 0.00 0.00
20260903134409 83 52 0.0 0.0 0.00 0.00 0.00
20260903134321 83 52 0.0 0.0 0.00 0.00 0.00
20260903130626 81 70 2.0 2.0 0.00 0.00 0.00
20260903130552 81 70 2.0 2.0 0.00 0.00 0.00
20260903130514 81 70 2.0 2.0 0.00 0.00 0.00
20260903130315 81 70 2.0 2.0 0.00 0.00 0.00
20260903125933 81 69 1.0 2.0 0.00 0.00 0.00
20260903125809 81 69 1.0 2.0 0.00 0.00 0.00
20260903124712 78 46 0.0 0.0 0.00 0.00 0.00
20260903124617 78 46 0.0 0.0 0.00 0.00 0.00
20260903124545 78 46 0.0 0.0 0.00 0.00 0.00
20260903124309 80 51 0.0 0.0 0.00 0.00 0.00
20260903124011 80 46 0.0 0.0 0.00 0.00 0.00
20260903123945 80 46 0.0 0.0 0.00 0.00 0.00
20260903123932 80 46 0.0 0.0 0.00 0.00 0.00
20260903123851 80 46 0.0 0.0 0.00 0.00 0.00
20260903123808 80 46 0.0 0.0 0.00 0.00 0.00
20260903123308 80 46 0.0 0.0 0.00 0.00 0.00
20260903123044 79 46 0.0 0.0 0.00 0.00 0.00
20260903123012 79 46 0.0 0.0 0.00 0.00 0.00
20260903122803 79 46 0.0 0.0 0.00 0.00 0.00
20260903121303 78 46 0.0 0.0 0.00 0.00 0.00
20260903121011 78 46 0.0 0.0 0.00 0.00 0.00
20260903120759 78 46 0.0 0.0 0.00 0.00 0.00
20260903120527 76 46 0.0 0.0 0.00 0.00 0.00
20260903120247 76 46 0.0 0.0 0.00 0.00 0.00
20260903114748 77 46 0.0 0.0 0.00 0.00 0.00
20260903113825 76 46 0.0 0.0 0.00 0.00 0.00
20260903113743 76 46 0.0 0.0 0.00 0.00 0.00
20260903113319 76 46 0.0 0.0 0.00 0.00 0.00
20260903113244 76 46 0.0 0.0 0.00 0.00 0.00
20260903113148 76 46 0.0 0.0 0.00 0.00 0.00
20260903113111 76 46 0.0 0.0 0.00 0.00 0.00
20260903112741 76 46 0.0 0.0 0.00 0.00 0.00
20260903112258 75 46 0.0 0.0 0.00 0.00 0.00
20260903111832 75 46 0.0 0.0 0.00 0.00 0.00
20260903111741 75 46 0.0 0.0 0.00 0.00 0.00
20260903111317 76 46 0.0 0.0 0.00 0.00 0.00
20260903111242 76 46 0.0 0.0 0.00 0.00 0.00
20260903093212 76 46 0.0 0.0 0.00 0.00 0.00
20260903092250 76 46 0.0 0.0 0.00 0.00 0.00
20260903092212 76 46 0.0 0.0 0.00 0.00 0.00
20260903084154 76 46 0.0 0.0 0.00 0.00 0.00
20260903083732 76 46 0.0 0.0 0.00 0.00 0.00
20260903083647 76 46 0.0 0.0 0.00 0.00 0.00
20260903080643 76 46 0.0 0.0 0.00 0.00 0.00
20260903080136 76 46 0.0 0.0 0.00 0.00 0.00
20260903075259 76 46 0.0 0.0 0.00 0.00 0.00
20260903075228 76 46 0.0 0.0 0.00 0.00 0.00
20260903075219 76 46 0.0 0.0 0.00 0.00 0.00
20260903075136 76 46 0.0 0.0 0.00 0.00 0.00
20260903075112 76 46 0.0 0.0 0.00 0.00 0.00
20260903075040 76 46 0.0 0.0 0.00 0.00 0.00
20260903074631 76 46 0.0 0.0 0.00 0.00 0.00
20260903071618 76 46 0.0 0.0 0.00 0.00 0.00
20260903070806 76 46 0.0 0.0 0.00 0.00 0.00
20260903070613 76 46 0.0 0.0 0.00 0.00 0.00
20260903065119 76 46 0.0 0.0 0.00 0.00 0.00
20260903064651 77 46 0.0 0.0 0.00 0.00 0.00
20260903064608 77 46 0.0 0.0 0.00 0.00 0.00
20260903064140 76 46 0.0 0.0 0.00 0.00 0.00
20260903064108 76 46 0.0 0.0 0.00 0.00 0.00
20260903052821 76 46 0.0 0.0 0.00 0.00 0.00
20260903052748 76 46 0.0 0.0 0.00 0.00 0.00
20260903052746 76 46 0.0 0.0 0.00 0.00 0.00
20260903051115 76 46 0.0 0.0 0.00 0.00 0.00
20260903051043 76 46 0.0 0.0 0.00 0.00 0.00
20260903050539 76 46 0.0 0.0 0.00 0.00 0.00
20260903045537 77 46 0.0 0.0 0.00 0.00 0.00
20260903045037 77 46 0.0 0.0 0.00 0.00 0.00
20260903044614 77 46 0.0 0.0 0.00 0.00 0.00
20260903044611 77 46 0.0 0.0 0.00 0.00 0.00
20260903044536 77 46 0.0 0.0 0.00 0.00 0.00
20260903044533 77 46 0.0 0.0 0.00 0.00 0.00
20260903044033 77 46 0.0 0.0 0.00 0.00 0.00
20260903043530 77 46 0.0 0.0 0.00 0.00 0.00
20260903042914 77 46 0.0 0.0 0.00 0.00 0.00
20260903042600 77 46 0.0 0.0 0.00 0.00 0.00
20260903042528 77 46 0.0 0.0 0.00 0.00 0.00
20260903042028 77 46 0.0 0.0 0.00 0.00 0.00
20260903041524 77 46 0.0 0.0 0.00 0.00 0.00
20260903041025 77 46 0.0 0.0 0.00 0.00 0.00
20260903040735 77 65 1.0 1.0 0.00 0.00 0.00
20260903040517 77 65 1.0 1.0 0.00 0.00 0.00
20260903040018 77 75 2.0 1.0 0.00 0.00 0.00
20260903035007 78 83 0.0 0.0 0.00 0.00 0.00
20260903034503 77 83 0.0 0.0 0.00 0.00 0.00
20260903034003 77 83 0.0 0.0 0.00 0.00 0.00
20260903032959 77 83 0.0 0.0 0.00 0.00 0.00
20260903032455 77 83 0.0 0.0 0.00 0.00 0.00
20260903031955 77 83 0.0 0.0 0.00 0.00 0.00
20260903031525 78 83 0.0 0.0 0.00 0.00 0.00
20260903031452 78 83 0.0 0.0 0.00 0.00 0.00
20260903030953 77 83 0.0 0.0 0.00 0.00 0.00
20260903030449 78 83 0.0 0.0 0.00 0.00 0.00
20260903030038 78 83 0.0 0.0 0.00 0.00 0.00
20260903025950 78 83 0.0 0.0 0.00 0.00 0.00
20260903025702 78 83 0.0 0.0 0.00 0.00 0.00
20260903025447 78 83 0.0 0.0 0.00 0.00 0.00
20260903024948 78 83 0.0 0.0 0.00 0.00 0.00
20260903024835 78 83 0.0 0.0 0.00 0.00 0.00
20260903024445 78 83 0.0 0.0 0.00 0.00 0.00
20260903023945 78 83 0.0 0.0 0.00 0.00 0.00
20260903023441 79 83 0.0 0.0 0.00 0.00 0.00
20260903022942 78 83 0.0 0.0 0.00 0.00 0.00
20260903022437 79 83 0.0 0.0 0.00 0.00 0.00
20260903021938 79 83 0.0 0.0 0.00 0.00 0.00
20260903021433 79 83 0.0 0.0 0.00 0.00 0.00
20260903020933 79 83 0.0 0.0 0.00 0.00 0.00
20260903020431 79 83 0.0 0.0 0.00 0.00 0.00
20260903015929 79 83 0.0 0.0 0.00 0.00 0.00
20260903015427 79 83 0.0 0.0 0.00 0.00 0.00
20260903014926 79 83 0.0 0.0 0.00 0.00 0.00
20260903014422 80 83 0.0 0.0 0.00 0.00 0.00
20260903013922 79 83 0.0 0.0 0.00 0.00 0.00
20260903013418 80 83 0.0 0.0 0.00 0.00 0.00
20260903012413 80 83 0.0 0.0 0.00 0.00 0.00
20260903011914 80 83 0.0 0.0 0.00 0.00 0.00
20260903011411 80 83 0.0 0.0 0.00 0.00 0.00
20260903011108 81 83 0.0 0.0 0.00 0.00 0.00
20260903010909 81 83 0.0 0.0 0.00 0.00 0.00
20260903010441 81 83 0.0 0.0 0.00 0.00 0.00
20260903010405 81 83 0.0 0.0 0.00 0.00 0.00
20260903010052 80 83 0.0 0.0 0.00 0.00 0.00
20260903005905 80 83 0.0 0.0 0.00 0.00 0.00
20260903005402 81 83 0.0 0.0 0.00 0.00 0.00
20260903004902 81 83 0.0 0.0 0.00 0.00 0.00
20260903004358 80 83 0.0 0.0 0.00 0.00 0.00
20260903003857 81 83 0.0 0.0 0.00 0.00 0.00
20260903003355 82 83 0.0 0.0 0.00 0.00 0.00
20260903002855 82 83 0.0 0.0 0.00 0.00 0.00
20260903002352 82 83 0.0 0.0 0.00 0.00 0.00
20260903001852 82 83 0.0 0.0 0.00 0.00 0.00
20260903001350 82 83 0.0 0.0 0.00 0.00 0.00
20260903000850 83 83 0.0 0.0 0.00 0.00 0.00
20260903000347 83 83 0.0 0.0 0.00 0.00 0.00
20260902235853 83 83 0.0 0.0 0.00 0.00 0.00
20260902235345 83 83 0.0 0.0 0.00 0.00 0.00
20260902234846 84 83 0.0 0.0 0.00 0.00 0.00
20260902234341 85 83 0.0 0.0 0.00 0.00 0.00